Weather History for LHSN - December, 2012

Change the Weather History Date:

Tuesday, December 4, 2012

  Actual Average (LHBP) Record (LHBP)
Temperature  
Mean Temperature 30 °F -  
Max Temperature 37 °F 39 °F 50 °F (2002)
Min Temperature 24 °F 29 °F 17 °F (2013)
Degree Days  
Heating Degree Days 34    
Moisture  
Dew Point 27 °F    
Average Humidity 83    
Maximum Humidity 100    
Minimum Humidity 65    
Precipitation  
Precipitation 0.00 in - - ()
Sea Level Pressure  
Sea Level Pressure 29.72 in    
Wind  
Wind Speed 7 mph ()    
Max Wind Speed 13 mph    
Max Gust Speed -    
Visibility 3.5 miles    
Events Rain , Snow    
Averages and records for this station are not official NWS values.
T = Trace of Precipitation, MM = Missing Value Source: Averaged Metar Reports

Daily Weather History Graph

Daily Weather History Graph

Search for Another Location

Airport or City:

Trip Planner

Search our weather history database for the weather conditions in past years. The results will help you decide how hot, cold, wet, or windy it might be!

Date:

Astronomy

Dec. 04, 2012 Rise Set
Actual Time 7:08 AM CET 3:50 PM CET
Civil Twilight 6:33 AM CET 4:25 PM CET
Nautical Twilight 5:54 AM CET 5:03 PM CET
Astronomical Twilight 5:17 AM CET 5:40 PM CET
Moon 9:33 PM CET (12/4) 10:40 AM CET (12/4)
Length of Visible Light 9h 52m
Length of Day
8h 42m
Waning Gibbous, 72% of the Moon is Illuminated
Dec 4
Waning Gibbous
Dec 6
Last Quarter
Dec 13
New
Dec 20
First Quarter
Dec 28
Full

Hourly Weather History & Observations

Time (CET) Temp. Windchill Dew Point Humidity Pressure Visibility Wind Dir Wind Speed Gust Speed Precip Events Conditions
12:15 AM 30.2 °F 23.5 °F 23.0 °F 75% 29.83 in - WNW 6.7 mph - N/A   Clear
12:45 AM 30.2 °F 23.5 °F 23.0 °F 75% 29.83 in - WNW 6.7 mph - N/A   Clear
1:15 AM 28.4 °F 23.4 °F 23.0 °F 80% 29.83 in - WNW 4.5 mph - N/A   Clear
1:45 AM 28.4 °F 21.4 °F 23.0 °F 80% 29.83 in - WNW 6.7 mph - N/A   Clear
2:15 AM 28.4 °F 23.4 °F 23.0 °F 80% 29.83 in - WNW 4.5 mph - N/A   Clear
2:45 AM 28.4 °F 21.4 °F 23.0 °F 80% 29.83 in - West 6.7 mph - N/A   Clear
3:15 AM 26.6 °F 21.3 °F 21.2 °F 80% 29.80 in - West 4.5 mph - N/A   Clear
3:45 AM 26.6 °F 21.3 °F 23.0 °F 86% 29.80 in - WSW 4.5 mph - N/A   Clear
4:15 AM 26.6 °F 21.3 °F 23.0 °F 86% 29.80 in - WSW 4.5 mph - N/A   Clear
4:45 AM 24.8 °F 19.2 °F 21.2 °F 86% 29.80 in - WSW 4.5 mph - N/A   Clear
5:15 AM 24.8 °F 17.1 °F 23.0 °F 93% 29.83 in - West 6.7 mph - N/A   Clear
5:45 AM - - - N/A% - - SSW 6.7 mph - N/A   Clear
6:15 AM 24.8 °F - 21.2 °F 86% 29.80 in - SSW 2.2 mph - N/A   Clear
6:45 AM 24.8 °F 19.2 °F 21.2 °F 86% 29.80 in - SSW 4.5 mph - N/A   Clear
7:15 AM 24.8 °F 19.2 °F 21.2 °F 86% 29.80 in 5.0 mi South 4.5 mph - N/A   Unknown
7:45 AM 26.6 °F 21.3 °F 23.0 °F 86% 29.80 in 5.0 mi South 4.5 mph - N/A   Unknown
8:15 AM 28.4 °F 23.4 °F 24.8 °F 86% 29.77 in - South 4.5 mph - N/A   Clear
8:45 AM - - - N/A% - 5.0 mi SSW 6.7 mph - N/A Rain Light Rain Showers
9:15 AM 30.2 °F 23.5 °F 26.6 °F 86% 29.77 in - South 6.7 mph - N/A   Clear
9:45 AM 32.0 °F 25.7 °F 24.8 °F 75% 29.77 in - South 6.7 mph - N/A   Clear
10:15 AM 33.8 °F 25.4 °F 26.6 °F 75% 29.77 in - SSE 11.2 mph - N/A   Clear
10:45 AM 33.8 °F 26.5 °F 26.6 °F 75% 29.77 in - South 8.9 mph - N/A   Clear
11:15 AM 35.6 °F 26.8 °F 24.8 °F 65% 29.74 in - South 13.4 mph - N/A   Clear
11:45 AM - - - N/A% - 5.0 mi South 11.2 mph - N/A Rain Light Rain Showers
12:15 PM 35.6 °F 26.8 °F 26.6 °F 70% 29.71 in - South 13.4 mph - N/A   Clear
12:45 PM 35.6 °F 26.8 °F 26.6 °F 70% 29.71 in - South 13.4 mph - N/A   Clear
1:15 PM 35.6 °F 26.8 °F 26.6 °F 70% 29.68 in - South 13.4 mph - N/A   Clear
1:45 PM 37.4 °F 29.1 °F 28.4 °F 70% 29.68 in - South 13.4 mph - N/A   Clear
2:15 PM 35.6 °F 26.8 °F 28.4 °F 75% 29.68 in - South 13.4 mph - N/A   Clear
2:45 PM - - - N/A% - 5.0 mi South 11.2 mph - N/A Rain Light Rain Showers
3:12 PM 35.6 °F 27.7 °F 28.4 °F 75% 29.68 in 6.2 mi South 11.2 mph - N/A Snow Light Snow
3:15 PM 35.6 °F 26.8 °F 28.4 °F 75% 29.68 in 6.2 mi South 13.4 mph - N/A Snow Light Snow
3:45 PM 35.6 °F 27.7 °F 28.4 °F 75% 29.65 in 6.2 mi South 11.2 mph - N/A   Overcast
4:15 PM 35.6 °F 27.7 °F 30.2 °F 81% 29.65 in 6.2 mi SSE 11.2 mph - N/A   Overcast
4:45 PM 35.6 °F 27.7 °F 30.2 °F 81% 29.65 in 6.2 mi SSE 11.2 mph - N/A Rain , Snow Light Rain
5:15 PM 33.8 °F 24.5 °F 30.2 °F 87% 29.62 in 6.2 mi SSE 13.4 mph - N/A Rain , Snow Light Rain
5:45 PM - - - N/A% - 1.9 mi SE 6.7 mph - N/A   Unknown
6:15 PM 33.8 °F 26.5 °F 30.2 °F 87% 29.62 in 3.7 mi SSE 8.9 mph - N/A Rain , Snow Light Snow
6:45 PM 33.8 °F 26.5 °F 32.0 °F 93% 29.62 in 3.1 mi SSE 8.9 mph - N/A Snow Light Snow
7:15 PM 33.8 °F 26.5 °F 32.0 °F 93% 29.62 in 3.1 mi SSE 8.9 mph - N/A Snow Light Snow
7:45 PM 33.8 °F 26.5 °F 32.0 °F 93% 29.59 in 1.9 mi SSE 8.9 mph - N/A Snow Light Snow
8:15 PM 33.8 °F 27.9 °F 32.0 °F 93% 29.59 in 1.9 mi South 6.7 mph - N/A Snow Light Snow
8:45 PM - - - N/A% - 1.9 mi SSE 6.7 mph - N/A   Unknown
9:15 PM 32.0 °F 27.6 °F 30.2 °F 93% 29.59 in 1.2 mi SE 4.5 mph - N/A Snow Snow
9:45 PM 32.0 °F 27.6 °F 30.2 °F 93% 29.56 in 0.7 mi SE 4.5 mph - N/A Snow Snow
10:15 PM 32.0 °F 27.6 °F 30.2 °F 93% 29.56 in 0.7 mi ESE 4.5 mph - N/A Snow Snow
10:45 PM 32.0 °F 27.6 °F 30.2 °F 93% 29.56 in 0.7 mi ESE 4.5 mph - N/A Snow Light Snow
11:00 PM - - - N/A% - 1.9 mi ESE 4.5 mph - N/A   Overcast
11:15 PM 32.0 °F 27.6 °F 32.0 °F 100% 29.56 in 0.9 mi SE 4.5 mph - N/A Snow Light Snow
11:45 PM - - - N/A% - 1.9 mi North - - N/A   Overcast